Wind_Speed
14 11 9 8 7 6 5 4 3 2 2 2 3 3 4 5 5 5 5 5 5 6 8 9 10 12 12 12 12 12 12 13 14 14 15 15 14 14 13 12 11 10 10 10 11 10 9 9 11 13 12 11 9 8 8 7 6 5 5 5 5 5 5
13 11 8 7 6 5 5 4 3 2 1 1 3 4 5 6 6 7 8 7 7 7 7 7 9 10 11 11 11 11 12 12 12 13 14 14 14 14 13 13 12 11 11 11 12 12 11 10 9 10 10 9 9 8 7 8 6 6 7 7 7 6 6
12 11 8 7 6 5 4 3 3 2 1 1 3 5 6 8 8 8 10 10 9 8 7 7 7 8 9 10 11 11 11 11 11 12 12 12 12 12 12 12 12 11 11 10 11 11 12 12 10 9 10 9 9 8 8 9 7 7 8 9 7 6 6
10 9 7 6 4 3 2 2 3 4 4 4 4 6 7 9 9 9 11 12 11 9 7 7 7 7 7 8 9 10 11 11 11 12 12 11 11 11 11 11 11 10 10 10 11 11 11 12 10 10 11 11 11 10 10 10 9 8 9 9 6 5 5
10 8 7 6 4 1 1 2 3 4 5 5 6 7 7 8 10 10 12 13 12 10 8 8 8 8 7 7 7 8 10 11 12 11 11 11 11 11 11 10 10 10 10 10 11 11 11 11 10 10 11 11 11 11 10 10 10 10 10 8 5 4 4
12 10 9 8 5 3 1 2 3 5 6 6 6 6 5 6 8 9 11 13 12 10 8 8 8 8 8 7 7 6 7 10 11 11 10 10 10 10 10 9 9 9 9 10 11 11 12 11 10 10 10 11 11 11 11 11 10 10 8 6 4 4 4
14 13 11 9 7 4 2 3 5 7 7 7 6 5 2 3 5 7 10 11 9 8 7 6 7 7 6 6 6 6 6 8 8 8 9 9 8 8 8 8 7 7 9 10 11 11 11 9 9 9 10 11 11 12 11 11 10 8 7 6 5 5 5
16 15 13 11 8 6 4 4 5 7 8 7 6 4 2 1 3 5 7 8 7 6 6 5 6 6 6 6 6 6 6 6 6 7 8 8 7 8 8 7 6 7 8 9 9 11 10 8 8 9 10 10 10 10 11 10 10 10 8 7 6 6 5
18 17 15 13 11 8 5 4 5 6 7 5 4 3 2 1 3 4 5 6 6 6 6 6 6 6 5 5 5 5 6 6 5 6 6 7 7 7 8 8 7 8 8 8 9 10 10 10 10 10 10 10 7 7 10 12 12 11 10 8 6 6 5
18 17 16 14 12 9 6 5 5 6 6 4 2 1 1 0 2 3 4 5 5 6 6 7 6 5 5 5 5 5 5 6 7 7 7 7 7 7 8 8 8 7 7 8 9 10 10 10 10 10 10 9 8 6 9 13 12 12 11 9 7 6 5
19 17 16 15 13 10 7 5 6 6 6 3 1 2 1 1 2 3 4 5 6 7 7 7 7 6 5 5 5 4 5 6 8 9 9 9 8 8 8 8 8 8 7 8 10 10 9 9 8 8 6 8 10 9 10 11 11 10 9 8 7 6 5
20 18 17 16 14 10 7 6 6 7 6 3 2 3 2 1 2 3 3 4 5 7 7 8 7 7 6 5 5 4 5 6 7 9 9 9 9 8 8 8 8 8 8 9 10 8 7 6 5 3 4 8 10 10 11 11 10 8 7 6 6 5 5
21 19 18 18 16 11 8 7 8 8 6 4 2 3 3 2 2 3 4 4 6 7 7 8 8 7 7 6 5 5 5 5 5 7 8 8 8 7 7 7 7 8 7 7 7 5 5 5 4 2 3 6 8 8 9 10 9 7 6 6 5 5 5
21 20 19 19 16 11 9 8 9 8 6 4 3 3 3 3 3 4 5 6 7 7 8 8 8 9 8 7 7 7 7 6 6 6 7 7 8 7 7 6 6 7 7 6 5 5 5 5 4 2 2 3 5 5 5 5 5 5 6 6 6 6 7
23 23 22 20 15 10 9 9 8 7 5 4 4 5 5 5 5 5 7 8 8 9 9 9 10 10 10 10 10 10 10 9 8 8 8 8 9 9 9 8 7 7 7 6 5 4 4 4 3 2 2 2 2 2 3 3 3 4 6 7 7 7 8
25 24 24 22 15 10 9 9 8 7 6 5 6 7 7 6 6 7 9 11 11 11 11 11 11 12 12 12 12 12 12 12 11 10 10 9 9 10 11 10 10 9 7 6 4 4 5 4 4 3 4 4 3 4 5 5 6 7 8 9 9 9 10
26 25 27 25 16 11 10 9 8 8 7 7 8 8 8 7 7 9 11 12 12 12 12 12 12 13 13 14 14 14 13 14 14 12 11 11 10 10 11 10 10 9 7 6 5 4 5 5 5 5 5 6 6 7 8 9 9 10 11 12 13 13 12
28 29 30 25 18 13 11 8 8 9 8 9 9 8 8 7 8 11 13 13 13 13 13 13 13 13 14 15 14 14 14 14 14 13 12 12 11 10 10 10 9 8 8 7 6 5 5 5 6 7 7 8 9 10 11 12 12 12 13 14 15 16 15
28 30 28 23 19 14 10 9 9 9 9 10 10 9 8 8 10 11 13 14 13 13 13 14 14 13 14 15 14 14 13 14 13 13 13 12 11 11 10 9 9 8 8 7 6 6 7 7 8 9 10 11 12 12 13 13 14 15 14 15 16 17 17
22 24 24 22 18 13 10 11 11 9 9 10 11 10 9 9 10 11 13 13 13 13 13 13 14 13 13 14 14 13 13 13 13 12 12 12 12 11 10 9 9 8 8 8 8 9 9 10 11 12 13 14 14 14 15 16 17 18 17 17 17 18 19
17 20 22 21 17 15 14 14 11 9 10 11 12 12 11 10 10 11 12 13 13 13 13 13 13 13 12 12 12 13 13 13 13 13 13 12 11 11 10 10 10 10 10 11 11 12 12 13 14 15 15 16 16 17 18 18 19 21 21 20 19 19 20
14 17 20 20 20 19 17 15 13 12 11 12 13 13 13 12 11 12 12 13 13 13 13 13 13 13 12 12 12 12 13 13 13 13 13 12 12 12 11 11 12 12 13 14 15 16 17 16 17 17 18 18 19 20 20 21 22 22 23 22 21 20 21
15 18 20 21 22 21 19 17 15 13 13 12 13 13 13 13 13 13 14 14 14 14 14 14 14 14 14 14 14 14 14 15 15 15 15 15 15 15 14 14 15 16 17 17 18 20 21 21 20 20 20 21 22 22 23 24 25 25 24 24 24 23 22
17 20 22 23 22 20 20 18 15 13 13 13 14 13 13 13 14 14 15 15 15 15 16 16 16 16 16 16 17 17 17 18 19 18 18 18 18 18 18 18 18 19 20 20 20 21 21 22 22 22 22 23 24 24 25 26 27 27 27 26 26 25 24
15 17 21 22 20 18 17 16 15 13 12 13 14 14 13 14 14 15 15 16 16 16 17 17 17 17 18 18 18 19 19 20 21 21 21 21 21 22 22 21 22 22 23 23 22 22 22 23 23 24 24 25 26 26 27 28 29 30 30 29 29 28 27
14 15 17 18 17 16 16 15 14 13 12 13 14 15 14 14 15 15 16 17 17 17 17 18 18 18 18 19 20 21 21 23 24 24 24 25 25 25 25 25 25 25 25 24 24 24 25 24 25 25 26 27 28 29 30 31 33 33 33 32 31 30 28
13 14 15 16 17 17 16 16 16 16 15 15 15 15 15 15 15 16 17 17 17 17 17 18 19 19 19 20 21 22 24 25 26 27 27 27 28 27 27 27 26 26 26 26 26 26 26 26 27 28 29 30 31 32 33 34 35 35 34 33 31 30 29
12 13 14 15 15 15 15 16 18 19 19 19 18 17 16 16 16 16 16 16 16 16 16 17 18 19 20 21 23 24 26 27 28 28 29 29 30 29 28 28 28 28 28 28 28 28 28 29 30 31 32 33 33 33 34 35 35 35 33 32 30 30 30
14 14 14 14 15 15 15 16 18 19 19 18 17 18 18 17 17 17 17 17 17 16 16 17 17 18 19 21 23 24 25 26 27 27 27 29 30 28 27 28 29 29 30 30 30 31 31 31 32 32 33 33 33 33 34 34 33 32 30 28 28 29 30
16 16 16 16 17 17 18 18 19 19 19 17 17 18 18 18 18 19 19 19 18 18 18 17 17 18 19 20 21 22 23 25 25 26 26 28 30 30 28 28 29 30 31 31 32 33 33 33 33 33 33 33 32 33 34 32 31 30 28 27 28 28 29
14 15 15 16 16 17 18 18 18 19 20 20 21 21 21 21 20 20 21 21 21 21 20 19 19 20 20 21 22 23 24 26 27 28 30 31 31 32 32 31 30 31 31 30 31 33 33 34 33 33 34 33 32 32 33 31 29 28 27 26 27 27 28
14 15 15 16 17 18 19 19 20 21 22 23 23 24 24 24 24 24 24 24 24 24 25 24 24 24 24 24 25 26 28 30 30 31 32 33 32 33 34 33 32 32 31 30 32 33 34 34 34 34 34 33 33 33 31 28 26 26 26 26 26 26 27
17 18 19 19 20 21 22 23 23 24 25 26 26 26 27 27 27 27 27 27 27 28 29 29 28 28 28 29 30 31 32 33 34 34 35 35 35 35 36 35 33 33 33 34 34 35 36 37 35 34 33 34 34 32 29 26 26 26 26 26 26 26 26
22 23 24 24 25 25 26 26 27 27 28 29 30 30 31 31 32 32 32 32 33 33 34 34 35 34 34 34 35 36 36 37 37 37 38 39 39 38 37 35 34 34 36 36 36 37 38 38 36 34 34 34 32 28 27 26 27 27 26 26 26 26 26
26 27 28 28 29 29 29 30 30 31 32 33 34 34 35 36 37 37 38 39 40 40 41 41 41 40 39 39 38 39 39 39 39 39 40 40 39 37 35 34 34 35 36 36 36 37 38 36 35 35 35 32 29 28 28 28 28 27 26 26 25 25 24
29 29 30 31 32 33 34 34 35 35 36 37 38 38 39 40 41 42 42 43 44 45 46 45 45 44 43 42 41 41 40 40 39 40 41 40 38 36 35 34 34 35 36 36 36 37 36 35 35 35 34 32 30 30 30 29 28 27 26 26 25 25 24
31 32 33 33 34 36 36 37 38 39 40 40 41 42 43 43 44 45 45 45 46 47 47 48 48 47 46 44 43 42 41 41 40 41 41 41 39 37 35 34 33 33 33 34 34 35 35 36 35 35 34 32 30 29 29 28 28 27 27 26 25 25 25
Wind_Direction
174 173 167 157 143 133 130 127 130 142 162 202 224 235 247 250 254 261 267 267 253 235 225 217 214 209 204 203 205 209 211 212 216 218 221 225 229 234 238 239 236 232 230 229 232 227 206 208 221 217 216 221 219 219 222 219 216 229 253 266 267 273 279
176 174 171 162 147 140 141 137 130 128 154 224 246 249 255 258 257 255 254 256 256 247 234 224 222 216 208 205 203 207 210 210 215 218 221 226 229 233 236 238 235 227 225 229 234 232 217 208 216 222 222 222 221 215 208 208 219 239 252 261 266 272 275
183 179 178 170 157 150 148 133 101 71 39 306 277 265 262 262 258 252 247 248 254 255 243 227 223 217 209 206 204 207 211 211 213 216 220 223 227 229 230 232 231 223 222 228 229 225 219 211 207 213 216 215 219 217 217 226 235 245 253 261 267 272 271
192 192 193 185 171 157 127 64 49 30 14 354 325 302 284 269 258 247 238 236 242 249 240 226 223 221 214 209 205 205 208 210 212 214 216 218 224 228 226 225 223 217 215 220 223 220 216 212 208 210 213 215 218 216 222 234 232 228 240 253 256 253 255
205 212 216 211 208 210 9 21 20 8 0 355 342 322 295 268 250 240 229 224 227 232 225 216 218 220 221 220 217 209 202 205 209 211 214 215 220 224 226 223 214 208 209 210 210 205 199 202 205 208 215 222 226 223 222 226 225 226 233 240 235 220 227
213 222 227 227 230 246 314 349 346 348 350 351 348 339 306 258 239 228 219 216 220 228 223 212 212 218 223 226 229 224 207 202 203 205 210 212 214 220 223 221 207 194 195 197 194 191 196 199 196 195 206 216 223 224 222 218 219 229 236 232 223 216 212
219 227 232 235 237 248 284 325 335 341 344 345 347 356 356 235 228 211 205 210 219 229 225 211 208 212 220 221 218 216 204 199 202 204 207 209 218 227 224 220 210 192 187 187 180 182 191 195 194 199 210 216 215 212 214 217 217 222 229 226 220 215 202
222 228 233 238 245 254 281 315 328 334 333 334 341 358 42 148 193 187 198 212 218 216 209 200 198 202 210 210 202 194 186 189 197 197 200 208 223 231 225 220 216 204 199 194 186 184 184 184 197 208 213 221 224 214 209 209 208 209 213 211 205 198 184
226 230 234 242 250 258 276 295 307 319 319 322 332 343 22 128 180 188 206 213 205 196 187 183 191 195 197 196 192 185 172 168 170 173 184 196 202 206 211 218 218 213 212 208 203 200 194 194 200 206 211 213 214 219 214 202 192 192 194 192 191 182 162
227 231 237 245 253 258 267 276 292 307 303 301 305 283 310 286 219 211 209 201 187 182 173 173 183 184 177 181 185 178 160 148 143 144 154 166 174 181 192 202 203 201 203 202 199 197 199 204 201 202 206 191 165 176 201 193 181 178 180 179 184 179 158
228 230 237 245 252 258 268 275 290 301 290 272 234 223 226 263 263 232 205 188 174 167 162 165 172 171 167 173 176 162 144 141 140 140 144 152 158 163 172 180 180 178 182 187 185 182 192 204 200 195 182 147 140 154 172 175 174 176 175 173 178 181 171
232 231 237 246 251 257 267 278 294 301 290 273 220 206 209 231 269 248 214 183 164 158 155 159 161 160 160 163 162 146 133 136 140 142 146 150 154 157 167 173 173 173 176 181 183 183 187 187 178 169 130 120 134 153 162 166 170 174 176 179 186 194 195
230 232 237 245 250 255 263 274 290 295 288 279 240 199 202 222 250 243 215 182 163 155 150 149 148 149 152 152 145 131 125 131 135 136 138 142 148 155 165 170 170 171 174 177 180 175 160 148 133 115 106 116 130 147 159 162 162 170 189 203 211 220 225
225 233 238 243 246 249 255 265 280 281 271 263 236 197 197 217 231 225 200 183 170 156 148 146 141 140 140 138 134 127 126 131 130 130 130 135 144 148 155 164 169 170 170 169 165 150 133 126 122 117 114 126 134 148 164 167 168 187 212 222 222 225 233
224 231 232 237 241 240 246 259 267 260 246 238 222 202 202 210 217 207 187 177 169 158 154 149 141 139 137 134 133 132 132 133 131 132 133 137 143 142 142 152 162 166 167 165 157 137 119 118 129 152 198 200 178 193 211 221 234 241 246 247 240 236 240
224 228 228 230 229 227 238 251 252 242 228 216 209 204 205 206 205 194 179 171 167 162 158 151 144 143 140 136 135 135 136 135 133 133 136 138 141 141 142 148 155 161 161 161 158 144 138 150 172 199 229 246 254 260 263 267 270 271 270 268 263 257 255
220 225 231 229 216 215 232 237 236 237 224 207 203 205 207 201 192 182 171 168 168 165 157 150 148 147 143 139 137 137 136 135 135 138 140 141 142 145 150 155 161 165 166 171 181 183 181 191 209 226 242 256 263 266 270 273 273 276 278 279 277 272 267
221 223 231 226 206 205 221 220 228 235 215 197 197 203 207 197 183 176 171 171 173 167 158 152 151 151 148 143 141 140 139 139 142 146 148 150 154 158 163 169 175 179 181 187 197 209 216 220 228 239 249 255 259 262 265 269 271 275 279 280 279 276 272
223 222 225 217 203 202 207 205 220 225 200 189 190 196 204 194 180 177 175 176 177 170 162 158 157 158 156 152 149 149 148 149 152 156 160 164 169 174 179 186 193 199 202 204 210 224 236 238 238 243 247 250 253 255 256 261 266 272 275 277 277 276 273
229 222 213 206 199 194 196 201 209 206 187 184 185 188 198 196 185 183 182 182 182 178 173 169 167 168 169 165 162 162 164 166 169 173 179 184 188 192 199 206 216 226 231 231 232 236 242 246 250 254 257 259 259 258 257 260 266 271 274 277 279 279 276
233 216 207 204 192 185 193 195 194 192 187 187 187 187 194 199 196 194 192 191 189 186 185 183 180 181 183 183 181 181 185 188 191 194 199 204 209 214 221 229 239 249 256 258 258 255 252 253 258 263 267 270 271 271 269 269 271 273 275 276 277 279 280
225 207 204 201 187 184 193 190 185 188 186 187 193 192 194 200 203 205 205 203 201 198 197 196 195 195 198 203 205 206 209 211 213 216 219 224 230 236 243 250 255 261 264 267 269 268 265 262 261 263 266 268 269 269 269 269 270 271 273 275 276 276 279
209 198 196 194 189 190 192 188 188 190 186 187 194 196 198 202 207 211 213 213 212 210 209 210 210 209 210 214 219 223 226 228 231 232 232 235 240 244 249 253 257 260 261 264 268 269 267 265 264 263 265 266 266 265 265 266 266 267 269 272 274 274 276
196 194 193 196 198 196 191 187 188 192 193 192 192 194 199 204 211 217 219 219 218 216 216 218 220 220 221 223 225 229 234 238 241 242 243 244 246 249 251 254 257 259 260 263 266 267 266 265 264 266 269 270 269 267 265 265 265 267 269 270 271 272 273
191 192 193 200 204 200 195 191 187 188 196 198 195 195 199 203 210 217 222 224 222 219 219 221 223 225 227 229 231 234 237 241 245 248 250 252 254 255 257 258 260 262 264 266 266 265 264 263 264 267 271 272 271 269 267 267 267 268 269 269 269 269 268
194 194 193 201 208 205 203 201 196 192 197 204 203 198 199 205 209 213 220 224 224 222 221 223 226 228 229 232 234 237 240 242 246 248 250 253 256 257 258 259 261 262 263 264 265 264 264 263 264 266 267 268 268 268 268 268 269 269 269 268 267 266 263
204 203 200 207 214 214 211 209 207 202 201 207 209 203 201 208 213 216 221 225 226 225 223 225 228 230 231 232 235 238 240 243 245 248 250 252 253 253 255 257 259 260 262 262 263 263 264 265 267 268 268 267 266 265 265 267 268 269 267 265 264 263 258
204 203 205 211 217 218 213 208 208 207 206 208 209 208 208 211 217 222 225 228 232 233 230 229 230 232 234 234 236 238 241 244 246 249 251 252 251 251 253 256 258 260 262 262 262 262 263 264 266 268 268 267 266 265 266 267 269 268 266 262 260 257 251
205 206 210 215 218 219 216 213 214 218 221 218 214 215 218 220 222 225 228 232 235 236 236 234 232 232 234 237 239 241 244 247 249 252 254 256 258 258 257 257 259 260 261 262 262 263 264 264 265 266 265 266 267 267 267 267 267 265 261 255 251 249 246
217 217 218 219 220 222 223 222 220 221 224 225 222 224 228 231 233 235 236 238 240 239 239 238 234 232 232 235 239 242 246 250 254 258 261 262 265 266 263 260 260 260 261 262 263 264 264 264 265 265 265 265 265 264 265 264 261 257 250 243 241 241 242
226 226 226 227 227 228 229 229 227 225 226 227 227 228 230 232 234 237 239 242 244 244 243 242 242 242 241 241 242 244 248 252 256 260 263 264 266 267 266 264 262 261 261 262 263 263 262 262 263 264 265 264 262 261 261 259 252 247 242 237 235 237 239
232 233 235 236 236 236 236 235 234 234 234 235 235 236 237 237 235 235 237 240 243 246 246 247 250 252 252 251 251 251 253 256 258 261 264 265 266 267 267 265 264 264 265 265 265 264 264 264 264 266 265 261 256 254 252 247 240 236 234 233 234 236 240
241 243 245 246 247 248 249 249 248 246 245 244 242 241 241 240 238 238 239 242 246 248 250 251 253 254 254 254 255 257 258 260 263 266 266 266 265 264 264 264 265 266 267 267 265 266 267 267 267 266 261 256 252 247 239 231 229 228 229 230 233 238 242
252 253 254 255 254 254 255 256 257 257 257 256 254 252 250 248 245 243 243 246 249 251 253 254 254 254 254 254 255 256 258 261 263 265 265 264 263 262 263 264 265 265 265 265 265 266 266 266 267 265 259 252 246 236 226 223 225 226 227 230 234 240 246
257 258 258 259 259 259 259 259 258 258 259 259 260 260 260 259 258 256 254 253 253 254 254 255 255 254 254 253 253 254 256 258 259 259 259 259 259 260 261 265 266 265 265 265 265 265 265 264 264 260 251 241 231 223 220 222 224 226 229 234 239 244 249
257 258 260 261 263 264 264 264 263 262 261 260 259 259 260 260 261 261 262 262 262 262 261 261 260 260 258 257 255 254 254 254 255 255 256 256 256 258 261 266 268 267 265 265 266 267 268 266 262 253 240 227 220 218 219 221 224 228 233 237 242 247 252
262 263 264 265 266 266 266 266 266 265 265 264 263 262 262 261 261 261 261 262 263 264 265 265 266 266 265 264 262 260 258 256 254 254 255 256 257 259 263 267 268 266 266 266 267 268 269 264 252 239 228 221 218 221 224 225 226 230 235 240 245 250 255
Height
3141 3142 3143 3144 3145 3145 3145 3146 3146 3147 3147 3147 3147 3146 3146 3145 3145 3145 3145 3144 3144 3143 3143 3143 3144 3144 3145 3146 3147 3148 3148 3149 3150 3150 3151 3151 3152 3152 3153 3154 3156 3158 3159 3158 3159 3160 3161 3161 3162 3162 3162 3162 3163 3164 3165 3164 3164 3164 3163 3163 3164 3164 3164
3140 3142 3143 3144 3145 3145 3146 3146 3146 3147 3146 3146 3146 3146 3145 3145 3145 3144 3144 3144 3143 3143 3142 3143 3143 3144 3145 3146 3146 3147 3148 3148 3149 3150 3150 3151 3151 3151 3152 3153 3155 3157 3158 3158 3158 3159 3159 3160 3161 3162 3162 3162 3163 3164 3165 3164 3164 3164 3163 3163 3164 3164 3164
3140 3141 3142 3143 3145 3145 3146 3146 3147 3146 3146 3146 3145 3145 3144 3143 3143 3143 3143 3143 3143 3142 3142 3142 3142 3143 3144 3145 3146 3146 3147 3148 3149 3149 3150 3150 3150 3151 3151 3152 3154 3156 3157 3157 3158 3158 3159 3159 3160 3161 3162 3162 3163 3164 3164 3164 3164 3164 3163 3163 3163 3164 3163
3141 3141 3142 3143 3144 3145 3145 3146 3146 3146 3145 3145 3145 3144 3143 3142 3142 3142 3142 3142 3142 3142 3142 3142 3142 3143 3144 3144 3145 3146 3146 3147 3148 3148 3149 3149 3149 3150 3151 3152 3153 3155 3156 3157 3157 3158 3158 3159 3160 3161 3161 3162 3162 3163 3164 3164 3164 3163 3163 3163 3163 3163 3163
3140 3141 3142 3143 3144 3145 3145 3145 3145 3145 3145 3144 3144 3143 3141 3140 3140 3140 3140 3140 3141 3142 3142 3142 3142 3143 3143 3144 3145 3145 3146 3146 3147 3148 3148 3149 3149 3149 3150 3151 3153 3154 3155 3156 3156 3157 3158 3159 3160 3161 3161 3161 3162 3163 3163 3163 3164 3163 3163 3163 3163 3163 3163
3140 3140 3141 3143 3143 3144 3144 3144 3144 3144 3143 3143 3143 3142 3140 3139 3139 3138 3139 3139 3140 3141 3141 3141 3142 3142 3143 3143 3144 3145 3145 3145 3146 3147 3148 3148 3149 3149 3150 3151 3152 3153 3154 3155 3156 3156 3157 3158 3159 3160 3160 3161 3162 3163 3163 3163 3163 3162 3162 3163 3163 3163 3163
3139 3140 3141 3142 3143 3143 3143 3143 3143 3143 3142 3142 3141 3141 3140 3139 3138 3138 3138 3139 3140 3141 3141 3141 3141 3142 3142 3142 3143 3144 3144 3145 3145 3146 3147 3148 3148 3149 3149 3150 3151 3152 3153 3154 3155 3155 3156 3157 3158 3159 3160 3161 3162 3162 3162 3162 3162 3162 3162 3163 3163 3163 3163
3138 3139 3140 3141 3142 3142 3143 3143 3143 3142 3142 3141 3141 3140 3139 3138 3138 3138 3139 3140 3141 3141 3141 3141 3141 3141 3141 3142 3142 3143 3144 3144 3145 3145 3146 3146 3147 3148 3148 3149 3150 3151 3152 3153 3154 3155 3156 3157 3158 3159 3160 3160 3161 3162 3161 3161 3162 3162 3162 3162 3163 3163 3163
3137 3137 3138 3139 3140 3142 3142 3142 3142 3143 3142 3141 3141 3140 3140 3139 3138 3138 3139 3140 3140 3140 3141 3141 3141 3141 3141 3142 3142 3143 3144 3145 3145 3145 3145 3146 3146 3147 3148 3149 3150 3151 3152 3153 3154 3155 3156 3157 3158 3159 3159 3160 3161 3161 3161 3161 3162 3162 3162 3162 3163 3163 3163
3135 3136 3137 3138 3139 3141 3142 3142 3142 3142 3142 3141 3141 3140 3140 3139 3139 3139 3139 3139 3140 3140 3140 3141 3141 3141 3142 3142 3142 3143 3144 3145 3145 3145 3145 3146 3147 3147 3148 3149 3150 3151 3152 3153 3154 3155 3156 3157 3158 3159 3159 3160 3160 3161 3161 3161 3162 3162 3162 3163 3163 3163 3163
3134 3135 3136 3137 3139 3140 3141 3141 3141 3141 3141 3141 3140 3140 3140 3140 3139 3139 3139 3139 3139 3140 3140 3140 3141 3141 3142 3142 3142 3143 3144 3145 3145 3146 3146 3147 3147 3148 3149 3150 3150 3151 3152 3153 3154 3155 3156 3157 3157 3158 3159 3159 3160 3160 3161 3161 3162 3162 3163 3163 3164 3164 3164
3132 3134 3136 3137 3138 3139 3140 3140 3140 3140 3140 3140 3139 3139 3139 3139 3139 3139 3139 3139 3139 3139 3140 3140 3141 3141 3142 3142 3142 3143 3144 3144 3145 3146 3146 3147 3148 3148 3149 3150 3151 3151 3152 3153 3154 3155 3156 3156 3157 3157 3158 3159 3159 3160 3161 3161 3162 3162 3163 3163 3164 3164 3164
3131 3133 3135 3137 3138 3139 3139 3139 3139 3139 3139 3139 3139 3139 3139 3139 3139 3139 3139 3139 3139 3139 3140 3140 3141 3141 3142 3142 3142 3143 3143 3144 3144 3145 3146 3147 3148 3148 3149 3150 3150 3151 3152 3152 3153 3154 3155 3156 3156 3157 3157 3158 3159 3160 3161 3162 3162 3163 3163 3163 3164 3164 3164
3131 3133 3134 3136 3137 3138 3138 3138 3137 3138 3138 3138 3138 3138 3139 3139 3139 3139 3139 3139 3140 3140 3140 3140 3141 3141 3141 3142 3142 3143 3143 3144 3144 3145 3146 3148 3148 3149 3149 3150 3150 3151 3152 3152 3153 3154 3155 3156 3156 3157 3158 3158 3159 3160 3161 3161 3162 3162 3163 3163 3163 3163 3163
3130 3131 3132 3134 3136 3137 3137 3137 3136 3136 3136 3137 3137 3138 3138 3139 3139 3139 3139 3139 3140 3140 3140 3140 3140 3141 3141 3142 3142 3143 3143 3144 3145 3145 3147 3148 3149 3150 3150 3151 3151 3152 3152 3153 3154 3155 3156 3156 3157 3158 3158 3159 3159 3160 3160 3160 3161 3161 3162 3162 3162 3162 3162
3129 3130 3130 3131 3134 3135 3136 3135 3135 3135 3135 3135 3136 3137 3137 3138 3138 3138 3139 3139 3140 3140 3140 3140 3141 3141 3141 3142 3142 3143 3143 3144 3145 3146 3147 3149 3150 3151 3151 3152 3153 3153 3154 3154 3155 3156 3157 3158 3158 3158 3158 3159 3159 3159 3159 3159 3160 3160 3160 3160 3161 3161 3161
3127 3128 3128 3129 3131 3133 3134 3134 3134 3134 3134 3134 3135 3136 3136 3137 3137 3138 3138 3139 3140 3140 3140 3141 3141 3141 3142 3142 3142 3143 3143 3144 3145 3147 3148 3149 3151 3151 3152 3153 3153 3154 3155 3155 3156 3157 3157 3158 3158 3158 3158 3158 3158 3158 3158 3158 3159 3159 3159 3159 3159 3159 3160
3125 3125 3126 3127 3129 3131 3132 3132 3132 3133 3133 3133 3134 3135 3136 3136 3137 3137 3138 3139 3140 3140 3141 3141 3141 3142 3142 3142 3143 3143 3144 3145 3146 3147 3149 3150 3151 3152 3153 3153 3154 3155 3156 3157 3157 3157 3157 3157 3158 3158 3158 3158 3158 3158 3158 3157 3157 3158 3158 3158 3157 3157 3158
3121 3122 3124 3126 3128 3129 3130 3131 3131 3132 3132 3133 3133 3134 3135 3136 3136 3137 3138 3139 3140 3140 3141 3141 3142 3142 3142 3143 3143 3144 3145 3146 3146 3148 3149 3150 3151 3152 3153 3153 3154 3155 3156 3157 3157 3157 3157 3157 3157 3157 3157 3157 3157 3157 3157 3157 3156 3156 3156 3156 3155 3155 3155
3118 3119 3121 3125 3127 3128 3129 3129 3130 3131 3131 3132 3133 3134 3135 3135 3136 3137 3138 3139 3140 3140 3141 3141 3142 3142 3142 3143 3143 3144 3145 3146 3147 3148 3148 3149 3150 3151 3152 3153 3153 3154 3155 3156 3156 3156 3156 3156 3156 3155 3155 3155 3155 3156 3155 3155 3155 3154 3154 3154 3153 3153 3152
3116 3117 3120 3123 3124 3126 3127 3127 3128 3129 3129 3130 3131 3132 3133 3134 3136 3137 3138 3138 3139 3140 3141 3141 3142 3142 3142 3143 3143 3144 3145 3145 3146 3147 3147 3148 3149 3150 3151 3151 3152 3153 3153 3153 3154 3154 3154 3154 3154 3154 3153 3153 3153 3153 3153 3153 3152 3152 3151 3151 3151 3151 3150
3115 3117 3119 3120 3121 3123 3124 3125 3126 3127 3128 3129 3130 3131 3132 3133 3134 3136 3137 3137 3138 3139 3140 3140 3141 3141 3142 3142 3143 3143 3144 3144 3145 3146 3146 3147 3148 3149 3149 3150 3150 3151 3151 3152 3152 3152 3152 3153 3153 3153 3152 3152 3151 3151 3150 3150 3149 3149 3148 3148 3148 3148 3147
3114 3115 3117 3118 3120 3122 3123 3124 3125 3126 3126 3127 3128 3129 3131 3132 3133 3134 3135 3136 3137 3138 3139 3139 3140 3140 3141 3141 3141 3142 3142 3143 3143 3144 3145 3146 3147 3147 3148 3148 3149 3149 3149 3150 3150 3150 3150 3150 3150 3150 3150 3150 3149 3148 3148 3147 3147 3146 3146 3145 3144 3145 3145
3112 3113 3115 3117 3120 3121 3121 3122 3124 3125 3126 3126 3127 3128 3129 3130 3131 3132 3133 3135 3136 3137 3137 3138 3138 3139 3139 3140 3140 3140 3141 3141 3141 3142 3143 3144 3144 3145 3146 3146 3146 3147 3147 3147 3147 3147 3147 3147 3147 3147 3147 3147 3146 3145 3145 3144 3144 3143 3143 3142 3142 3141 3141
3112 3114 3116 3117 3119 3120 3121 3122 3122 3124 3125 3126 3126 3126 3128 3129 3130 3131 3132 3133 3134 3135 3136 3137 3137 3138 3138 3138 3138 3139 3139 3139 3139 3139 3140 3141 3142 3142 3143 3143 3144 3144 3144 3145 3145 3145 3145 3144 3144 3144 3144 3143 3143 3142 3141 3141 3140 3139 3139 3139 3139 3138 3138
3112 3113 3115 3116 3117 3118 3120 3120 3120 3121 3123 3125 3125 3125 3126 3128 3129 3129 3130 3131 3132 3133 3134 3134 3135 3136 3136 3137 3137 3137 3137 3137 3137 3137 3138 3138 3139 3139 3140 3141 3141 3141 3141 3141 3141 3142 3142 3141 3141 3141 3140 3140 3139 3139 3138 3137 3136 3136 3135 3135 3135 3135 3135
3111 3112 3113 3115 3116 3116 3117 3118 3119 3120 3121 3124 3125 3125 3125 3126 3127 3128 3128 3129 3130 3130 3131 3132 3132 3133 3133 3134 3134 3134 3134 3134 3134 3134 3135 3135 3135 3136 3137 3138 3138 3138 3138 3138 3138 3138 3138 3137 3137 3137 3136 3136 3135 3135 3134 3133 3133 3132 3131 3131 3132 3132 3131
3112 3113 3113 3114 3115 3116 3116 3117 3118 3119 3120 3122 3124 3124 3124 3124 3125 3126 3126 3127 3127 3128 3129 3129 3129 3130 3130 3131 3131 3131 3131 3131 3131 3131 3131 3131 3131 3133 3135 3134 3134 3135 3134 3134 3134 3134 3133 3133 3132 3132 3131 3131 3130 3130 3130 3129 3128 3128 3127 3128 3128 3128 3128
3112 3113 3113 3114 3115 3115 3116 3116 3117 3118 3119 3120 3121 3122 3122 3122 3122 3123 3123 3123 3124 3125 3126 3126 3127 3127 3127 3127 3128 3128 3128 3127 3127 3127 3127 3127 3126 3129 3131 3131 3131 3131 3130 3129 3129 3129 3128 3128 3128 3127 3127 3126 3126 3125 3124 3124 3124 3124 3124 3124 3124 3124 3124
3110 3111 3112 3112 3113 3114 3114 3115 3116 3116 3117 3118 3118 3119 3119 3119 3119 3119 3119 3120 3120 3121 3122 3123 3124 3124 3124 3124 3124 3124 3124 3123 3123 3123 3123 3123 3122 3123 3126 3126 3126 3126 3126 3125 3125 3124 3124 3123 3123 3122 3122 3121 3121 3120 3120 3120 3119 3119 3120 3120 3120 3120 3121
3108 3108 3109 3110 3111 3111 3112 3113 3113 3114 3114 3115 3115 3116 3116 3116 3116 3116 3116 3116 3116 3117 3118 3119 3120 3120 3120 3120 3120 3120 3120 3119 3119 3118 3118 3118 3118 3119 3119 3120 3121 3121 3121 3122 3121 3120 3119 3119 3118 3117 3117 3116 3116 3116 3115 3115 3115 3115 3116 3116 3116 3117 3117
3106 3106 3107 3107 3108 3109 3110 3111 3112 3112 3112 3113 3113 3113 3112 3112 3112 3112 3112 3113 3113 3113 3113 3115 3115 3116 3116 3116 3116 3116 3115 3114 3114 3114 3113 3113 3114 3114 3114 3114 3115 3115 3116 3116 3116 3115 3114 3114 3113 3113 3112 3112 3111 3111 3110 3111 3111 3112 3112 3113 3113 3114 3114
3104 3105 3105 3105 3106 3106 3106 3107 3108 3109 3109 3109 3110 3110 3110 3109 3109 3109 3109 3109 3109 3109 3109 3110 3111 3111 3111 3111 3111 3110 3110 3109 3109 3109 3108 3108 3108 3108 3108 3109 3109 3110 3110 3110 3110 3109 3109 3108 3108 3108 3107 3107 3106 3105 3105 3106 3107 3108 3109 3110 3110 3111 3111
3101 3102 3102 3102 3103 3103 3103 3103 3103 3103 3103 3104 3104 3104 3105 3105 3105 3106 3106 3106 3105 3105 3105 3105 3106 3106 3106 3106 3105 3105 3104 3104 3104 3104 3103 3102 3102 3102 3103 3103 3104 3104 3104 3104 3104 3104 3103 3103 3103 3103 3102 3102 3101 3102 3102 3102 3103 3104 3106 3107 3107 3108 3108
3098 3098 3098 3098 3098 3098 3098 3099 3098 3098 3098 3098 3098 3098 3098 3098 3098 3099 3100 3100 3100 3099 3099 3099 3099 3099 3100 3100 3099 3099 3099 3099 3099 3098 3097 3097 3097 3097 3098 3098 3098 3098 3097 3098 3098 3098 3097 3097 3098 3098 3097 3096 3096 3097 3098 3099 3100 3101 3103 3104 3105 3105 3105
3094 3094 3094 3094 3093 3093 3093 3093 3093 3092 3092 3092 3092 3091 3091 3091 3091 3091 3091 3092 3091 3091 3091 3092 3092 3092 3093 3093 3093 3093 3093 3093 3093 3092 3091 3091 3092 3093 3093 3093 3093 3092 3092 3092 3092 3092 3092 3092 3093 3093 3093 3092 3092 3094 3095 3096 3097 3098 3099 3101 3101 3102 3103
3090 3090 3090 3089 3089 3088 3088 3087 3087 3086 3086 3085 3085 3085 3085 3084 3084 3084 3084 3084 3084 3084 3084 3084 3084 3085 3085 3086 3087 3087 3087 3087 3087 3086 3086 3086 3087 3087 3088 3088 3088 3087 3087 3087 3087 3087 3087 3087 3087 3087 3088 3088 3089 3091 3092 3093 3094 3095 3096 3097 3098 3099 3100